Cloud_Cover
10 1 0 0 0 0 0 2 5 3 1 0 0 0 0 10 13 64 18 5 52 5 5 5 5 5 5 18 76 81 88 67 54 4 4 19 82 69 60 48 26 54 37
31 0 0 0 0 0 0 0 4 5 0 0 0 0 0 0 28 62 40 0 84 5 5 5 5 5 5 16 6 10 9 35 5 5 5 39 76 52 93 64 33 88 100
3 0 0 0 0 0 0 0 1 5 0 0 0 0 0 0 21 56 27 0 49 8 5 5 5 5 5 78 5 68 68 47 2 4 24 84 85 75 74 97 100 48 98
0 0 0 0 0 0 0 0 0 5 5 0 0 0 0 0 52 90 41 4 54 62 19 49 5 5 5 8 5 18 21 74 2 0 37 99 93 83 86 96 95 88 100
0 0 0 0 0 0 0 1 0 0 2 0 5 3 0 9 44 67 27 5 13 100 5 7 5 11 5 5 2 5 6 23 2 12 16 47 54 71 93 85 86 100 100
5 0 2 0 0 0 0 5 41 4 0 0 0 26 3 1 38 5 5 5 2 99 6 99 49 72 44 5 1 0 6 5 21 33 69 49 100 100 88 100 100 100 100
5 0 1 5 0 0 0 5 58 5 1 0 4 24 48 16 5 3 8 5 2 93 23 20 49 72 100 5 0 0 7 22 2 51 100 86 86 100 93 100 100 100 100
2 30 5 4 0 0 0 4 100 29 0 5 1 33 5 8 5 5 24 35 54 85 100 20 75 97 89 5 2 1 5 26 11 2 23 77 84 100 99 100 98 100 100
29 33 48 75 30 2 0 5 100 15 0 0 1 5 10 51 5 16 80 11 70 84 100 100 22 62 5 77 4 1 6 24 6 0 5 8 86 46 28 100 100 100 100
0 4 5 22 30 3 12 0 5 1 0 0 1 11 35 57 90 96 94 5 5 35 100 12 69 33 9 5 4 0 24 16 88 100 100 100 100 77 100 97 100 100 100
90 70 30 95 100 81 66 9 1 0 2 16 2 16 63 40 53 100 100 1 6 53 100 26 5 5 27 5 5 5 74 39 6 99 100 100 100 99 96 74 100 100 99
96 40 40 27 100 99 100 85 40 32 57 65 6 62 57 96 28 100 100 10 70 83 96 99 20 5 7 76 24 5 23 93 31 98 100 100 100 100 100 58 82 100 88
100 100 52 81 51 100 100 100 98 91 100 55 7 10 54 100 51 48 100 100 100 100 99 100 100 32 72 55 7 5 42 22 12 23 90 85 90 87 99 47 90 68 100
98 66 14 75 37 100 90 88 100 100 100 100 100 51 3 52 51 13 100 100 100 100 100 100 100 98 37 20 9 17 4 9 5 5 36 69 78 90 33 82 100 100 100
86 55 90 98 100 100 100 99 100 100 100 100 100 90 49 0 5 100 100 100 100 100 100 100 100 98 100 40 29 100 6 3 0 6 87 22 15 7 0 55 100 100 72
46 19 46 99 100 100 100 100 100 100 100 100 100 100 73 41 21 100 100 100 100 100 100 100 100 100 96 100 98 97 2 1 3 99 7 5 5 12 3 1 77 60 81
100 100 54 24 62 100 100 100 100 100 100 100 100 100 100 100 100 100 100 100 100 100 100 100 100 100 100 100 100 100 28 0 0 18 5 5 53 55 33 2 4 37 100
100 100 100 100 99 96 91 72 99 100 100 100 100 100 100 100 100 100 100 100 100 100 100 100 100 100 100 89 22 79 99 1 0 3 3 5 5 5 16 5 3 3 15
100 97 100 100 100 100 100 100 100 100 100 100 100 100 100 100 100 100 100 100 100 100 92 100 100 100 100 21 9 77 100 11 0 5 28 0 0 5 5 63 87 30 1
100 100 98 100 100 100 100 100 100 100 100 100 100 100 100 100 100 100 100 100 100 100 95 100 100 100 100 98 93 76 9 95 4 5 6 5 5 0 0 5 58 94 1
100 100 100 100 100 100 100 100 100 100 100 100 100 100 100 100 100 100 100 100 99 100 100 100 100 100 100 100 100 100 96 97 40 5 98 67 0 4 4 0 3 5 5
100 100 100 100 99 100 100 100 100 100 100 100 100 100 100 100 80 69 100 100 100 100 100 100 100 100 100 100 98 100 96 74 56 60 18 40 4 5 0 5 5 5 2
100 100 100 100 100 100 100 100 100 100 100 100 100 100 100 100 100 100 100 100 100 100 89 100 100 100 100 100 100 100 100 59 100 98 15 4 8 38 7 4 5 9 1
100 100 100 100 100 100 100 100 100 100 100 100 100 100 100 100 100 100 100 100 100 100 100 100 100 100 100 100 100 100 100 97 100 100 98 19 84 98 87 5 11 7 5
100 100 100 100 100 100 100 100 100 100 100 100 100 100 100 100 100 100 100 100 100 100 100 100 100 100 100 100 100 100 100 100 100 100 100 72 6 62 5 12 5 5 5
100 100 100 100 100 100 100 100 100 100 100 100 100 100 100 100 100 100 100 100 100 100 100 100 100 100 100 100 100 100 100 100 100 100 100 100 100 48 5 5 5 8 4